Weather History for Hyannis, MA

Change the Weather History Date:

Thursday, May 30, 2013

  Actual Average Record
Temperature  
Mean Temperature 72 °F -  
Max Temperature 82 °F 68 °F 87 °F (1931)
Min Temperature 61 °F 51 °F 30 °F (1970)
Cooling Degree Days 6    
Growing Degree Days 22 (Base 50)    
Moisture  
Dew Point 63 °F    
Average Humidity 80    
Maximum Humidity 97    
Minimum Humidity 58    
Precipitation  
Precipitation 0.10 in - - ()
Sea Level Pressure  
Sea Level Pressure 30.05 in    
Wind  
Wind Speed 10 mph (SW)    
Max Wind Speed 16 mph    
Max Gust Speed 20 mph    
Visibility 8 miles    
Events Rain    
Averages and records for this station are not official NWS values.
T = Trace of Precipitation, MM = Missing Value Source: NWS Daily Summary

Daily Weather History Graph

Daily Weather History Graph

Search for Another Location

Airport:

Trip Planner

Search our weather history database for the weather conditions in past years. The results will help you decide how hot, cold, wet, or windy it might be!

Date:

Astronomy

May. 30, 2013 Rise Set
Actual Time 5:10 AM EDT 8:07 PM EDT
Civil Twilight 4:36 AM EDT 8:41 PM EDT
Nautical Twilight 3:54 AM EDT 9:23 PM EDT
Astronomical Twilight 3:05 AM EDT 10:12 PM EDT
Moon 12:03 AM EDT (5/30) 11:17 AM EDT (5/30)
Length of Visible Light 16h 04m
Length of Day
14h 57m
Waning Gibbous, 62% of the Moon is Illuminated
May 30
Waning Gibbous
May 31
Last Quarter
Jun 8
New
Jun 16
First Quarter
Jun 23
Full

Hourly Weather History & Observations

Time (EDT) Temp. Heat Index Dew Point Humidity Pressure Visibility Wind Dir Wind Speed Gust Speed Precip Events Conditions
12:18 AM 62.6 °F - 60.8 °F 94% 30.05 in 7.0 mi West 10.4 mph 19.6 mph 0.02 in Rain Light Rain
12:56 AM 64.0 °F - 62.1 °F 93% 30.05 in 6.0 mi West 6.9 mph - 0.07 in Rain Rain
1:56 AM 64.9 °F - 63.0 °F 93% 30.05 in 10.0 mi SW 9.2 mph - 0.02 in Rain Light Rain
2:56 AM 63.0 °F - 61.0 °F 93% 30.03 in 6.0 mi SW 10.4 mph - 0.00 in Rain Light Rain
3:17 AM 62.6 °F - 60.8 °F 94% 30.03 in 6.0 mi SW 10.4 mph - 0.01 in   Mostly Cloudy
3:56 AM 61.0 °F - 60.1 °F 97% 30.05 in 6.0 mi SW 11.5 mph - 0.01 in   Scattered Clouds
4:56 AM 62.1 °F - 60.1 °F 93% 30.05 in 7.0 mi WSW 13.8 mph - N/A   Clear
5:56 AM 63.0 °F - 60.1 °F 90% 30.06 in 7.0 mi WSW 9.2 mph - N/A   Clear
6:56 AM 62.1 °F - 60.1 °F 93% 30.07 in 7.0 mi WSW 10.4 mph - N/A   Clear
7:56 AM 64.0 °F - 61.0 °F 90% 30.07 in 7.0 mi WSW 8.1 mph - N/A   Clear
8:56 AM 72.0 °F - 64.0 °F 76% 30.08 in 9.0 mi WSW 8.1 mph - N/A   Clear
9:56 AM 75.0 °F - 66.0 °F 73% 30.09 in 10.0 mi South 5.8 mph - N/A   Clear
10:56 AM 75.0 °F - 64.9 °F 71% 30.08 in 10.0 mi SSE 6.9 mph - N/A   Clear
11:56 AM 78.1 °F - 66.0 °F 66% 30.08 in 9.0 mi SSE 8.1 mph - N/A   Clear
12:56 PM 77.0 °F - 66.0 °F 69% 30.07 in 9.0 mi SSW 9.2 mph - N/A   Clear
1:56 PM 77.0 °F - 66.0 °F 69% 30.06 in 9.0 mi South 9.2 mph - N/A   Clear
2:56 PM 79.0 °F - 66.9 °F 66% 30.05 in 9.0 mi SW 13.8 mph - N/A   Clear
3:56 PM 81.0 °F 83.0 °F 66.0 °F 60% 30.04 in 10.0 mi WSW 16.1 mph - N/A   Clear
4:56 PM 82.0 °F 84.1 °F 66.0 °F 58% 30.03 in 10.0 mi SW 12.7 mph - N/A   Clear
5:56 PM 79.0 °F - 64.9 °F 62% 30.02 in 10.0 mi SSW 10.4 mph - N/A   Partly Cloudy
6:56 PM 73.0 °F - 63.0 °F 71% 30.04 in 9.0 mi SW 10.4 mph - N/A   Clear
7:56 PM 68.0 °F - 61.0 °F 78% 30.04 in 8.0 mi SW 8.1 mph - N/A   Clear
8:56 PM 64.9 °F - 60.1 °F 84% 30.04 in 8.0 mi SSW 3.5 mph - N/A   Clear
9:56 PM 66.9 °F - 61.0 °F 81% 30.06 in 9.0 mi WSW 5.8 mph - N/A   Clear
10:56 PM 68.0 °F - 61.0 °F 78% 30.05 in 10.0 mi WSW 9.2 mph - N/A   Clear
11:56 PM 66.9 °F - 62.1 °F 84% 30.06 in 10.0 mi SW 6.9 mph - N/A   Clear